Weather History for Fort Dodge, IA

Change the Weather History Date:

Saturday, January 19, 2013

  Actual Average Record
Temperature  
Mean Temperature 31 °F -  
Max Temperature 50 °F 26 °F 55 °F (1981)
Min Temperature 10 °F 7 °F -24 °F (1970)
Degree Days  
Heating Degree Days 34    
Moisture  
Dew Point 24 °F    
Average Humidity 68    
Maximum Humidity 93    
Minimum Humidity 50    
Precipitation  
Precipitation 0.00 in - - ()
Sea Level Pressure  
Sea Level Pressure 29.94 in    
Wind  
Wind Speed 9 mph (West)    
Max Wind Speed 23 mph    
Max Gust Speed 34 mph    
Visibility 10 miles    
Events      
Averages and records for this station are not official NWS values.
T = Trace of Precipitation, MM = Missing Value Source: NWS Daily Summary

Daily Weather History Graph

Daily Weather History Graph

Search for Another Location

Airport:

Trip Planner

Search our weather history database for the weather conditions in past years. The results will help you decide how hot, cold, wet, or windy it might be!

Date:

Astronomy

Jan. 19, 2013 Rise Set
Actual Time 7:41 AM CST 5:14 PM CST
Civil Twilight 7:10 AM CST 5:44 PM CST
Nautical Twilight 6:36 AM CST 6:19 PM CST
Astronomical Twilight 6:02 AM CST 6:53 PM CST
Moon 11:42 AM CST (1/19) 1:14 AM CST (1/19)
Length of Visible Light 10h 34m
Length of Day
9h 32m
First Quarter, 57% of the Moon is Illuminated
Jan 19
First Quarter
Jan 26
Full
Feb 3
Last Quarter
Feb 10
New
Feb 17
First Quarter

Hourly Weather History & Observations

Time (CST) Temp. Windchill Dew Point Humidity Pressure Visibility Wind Dir Wind Speed Gust Speed Precip Events Conditions
12:15 AM 32.0 °F 28.7 °F 28.4 °F 87% 29.83 in 10.0 mi SSW 3.5 mph - N/A   Clear
12:35 AM 33.8 °F 28.6 °F 30.2 °F 87% 29.83 in 10.0 mi SSW 5.8 mph - N/A   Scattered Clouds
12:55 AM 33.8 °F 30.8 °F 28.4 °F 81% 29.82 in 10.0 mi South 3.5 mph - N/A   Mostly Cloudy
1:15 AM 33.8 °F 30.8 °F 28.4 °F 81% 29.82 in 10.0 mi South 3.5 mph - N/A   Partly Cloudy
1:35 AM 32.0 °F - 28.4 °F 87% 29.82 in 10.0 mi Calm Calm - N/A   Clear
1:55 AM 30.2 °F 26.7 °F 28.4 °F 93% 29.83 in 10.0 mi SSW 3.5 mph - N/A   Clear
2:15 AM 30.2 °F 25.4 °F 26.6 °F 86% 29.82 in 10.0 mi South 4.6 mph - N/A   Clear
2:35 AM 30.2 °F 26.7 °F 26.6 °F 86% 29.82 in 10.0 mi SSW 3.5 mph - N/A   Clear
2:55 AM 28.4 °F 24.6 °F 24.8 °F 86% 29.81 in 10.0 mi South 3.5 mph - N/A   Clear
3:15 AM 30.2 °F 23.4 °F 28.4 °F 93% 29.80 in 10.0 mi South 6.9 mph - N/A   Clear
3:35 AM 32.0 °F 26.4 °F 28.4 °F 87% 29.80 in 10.0 mi SSW 5.8 mph - N/A   Clear
3:55 AM 32.0 °F 24.8 °F 28.4 °F 87% 29.79 in 10.0 mi South 8.1 mph - N/A   Clear
4:15 AM 33.8 °F 28.6 °F 28.4 °F 81% 29.79 in 10.0 mi South 5.8 mph - N/A   Partly Cloudy
4:35 AM 33.8 °F 27.0 °F 28.4 °F 81% 29.78 in 10.0 mi South 8.1 mph - N/A   Mostly Cloudy
4:55 AM 33.8 °F 30.8 °F 30.2 °F 87% 29.78 in 10.0 mi SSW 3.5 mph - N/A   Overcast
5:15 AM 33.8 °F 28.6 °F 30.2 °F 87% 29.79 in 10.0 mi SW 5.8 mph - N/A   Overcast
5:35 AM 33.8 °F 30.8 °F 30.2 °F 87% 29.79 in 10.0 mi WSW 3.5 mph - N/A   Overcast
5:55 AM 33.8 °F 29.6 °F 28.4 °F 81% 29.80 in 10.0 mi SW 4.6 mph - N/A   Overcast
6:15 AM 33.8 °F 28.6 °F 30.2 °F 87% 29.79 in 10.0 mi SSW 5.8 mph - N/A   Overcast
6:35 AM 33.8 °F 29.6 °F 28.4 °F 81% 29.79 in 10.0 mi SSW 4.6 mph - N/A   Scattered Clouds
6:55 AM 33.8 °F 27.7 °F 28.4 °F 81% 29.79 in 10.0 mi WSW 6.9 mph - N/A   Clear
7:15 AM 33.8 °F 29.6 °F 28.4 °F 81% 29.79 in 10.0 mi SW 4.6 mph - N/A   Scattered Clouds
7:35 AM 33.8 °F 27.7 °F 28.4 °F 81% 29.80 in 10.0 mi WSW 6.9 mph - N/A   Partly Cloudy
7:55 AM 35.6 °F 30.7 °F 28.4 °F 75% 29.81 in 10.0 mi West 5.8 mph - N/A   Clear
8:15 AM 33.8 °F 27.0 °F 28.4 °F 81% 29.81 in 10.0 mi West 8.1 mph - N/A   Clear
8:35 AM 33.8 °F 27.0 °F 28.4 °F 81% 29.82 in 10.0 mi WSW 8.1 mph - N/A   Clear
8:55 AM 35.6 °F 29.9 °F 28.4 °F 75% 29.82 in 10.0 mi West 6.9 mph - N/A   Clear
9:15 AM 37.4 °F 31.4 °F 30.2 °F 75% 29.83 in 10.0 mi WSW 8.1 mph - N/A   Clear
9:35 AM 39.2 °F 32.5 °F 30.2 °F 70% 29.83 in 10.0 mi West 10.4 mph - N/A   Clear
9:55 AM 41.0 °F 34.3 °F 30.2 °F 65% 29.85 in 10.0 mi West 11.5 mph - N/A   Clear
10:15 AM 42.8 °F 37.0 °F 30.2 °F 61% 29.84 in 10.0 mi West 10.4 mph 17.3 mph N/A   Clear
10:35 AM 44.6 °F 38.1 °F 30.2 °F 57% 29.86 in 10.0 mi WNW 13.8 mph 23.0 mph N/A   Clear
10:55 AM 44.6 °F 38.4 °F 30.2 °F 57% 29.86 in 10.0 mi WNW 12.7 mph 19.6 mph N/A   Clear
11:15 AM 44.6 °F 37.8 °F 30.2 °F 57% 29.86 in 10.0 mi WNW 15.0 mph 19.6 mph N/A   Clear
11:35 AM 46.4 °F 40.7 °F 32.0 °F 57% 29.86 in 10.0 mi WNW 12.7 mph 21.9 mph N/A   Clear
11:55 AM 46.4 °F 40.1 °F 32.0 °F 57% 29.86 in 10.0 mi NW 15.0 mph 20.7 mph N/A   Clear
12:15 PM 48.2 °F - 32.0 °F 54% 29.86 in 10.0 mi NW 13.8 mph 20.7 mph N/A   Clear
12:35 PM 48.2 °F - 33.8 °F 58% 29.86 in 10.0 mi NW 12.7 mph 18.4 mph N/A   Clear
12:55 PM 48.2 °F - 32.0 °F 54% 29.86 in 10.0 mi WNW 11.5 mph 20.7 mph N/A   Clear
1:15 PM 48.2 °F - 33.8 °F 58% 29.87 in 10.0 mi WNW 13.8 mph 19.6 mph N/A   Clear
1:35 PM 50.0 °F - 33.8 °F 54% 29.87 in 10.0 mi WNW 12.7 mph 24.2 mph N/A   Clear
1:55 PM 50.0 °F - 32.0 °F 50% 29.88 in 10.0 mi WNW 15.0 mph 27.6 mph N/A   Clear
2:15 PM 50.0 °F - 33.8 °F 54% 29.89 in 10.0 mi NW 15.0 mph 23.0 mph N/A   Clear
2:35 PM 50.0 °F - 32.0 °F 50% 29.90 in 10.0 mi NW 15.0 mph 24.2 mph N/A   Clear
2:55 PM 48.2 °F - 30.2 °F 50% 29.92 in 10.0 mi NW 18.4 mph 25.3 mph N/A   Clear
3:15 PM 46.4 °F 39.5 °F 30.2 °F 53% 29.93 in 10.0 mi NW 17.3 mph 27.6 mph N/A   Clear
3:35 PM 46.4 °F 39.5 °F 30.2 °F 53% 29.94 in 10.0 mi NW 17.3 mph 29.9 mph N/A   Clear
3:55 PM 44.6 °F 37.2 °F 30.2 °F 57% 29.96 in 10.0 mi WNW 17.3 mph 26.5 mph N/A   Partly Cloudy
4:15 PM 42.8 °F 34.8 °F 30.2 °F 61% 29.97 in 10.0 mi WNW 17.3 mph 23.0 mph N/A   Partly Cloudy
4:35 PM 42.8 °F 35.1 °F 30.2 °F 61% 29.98 in 10.0 mi WNW 16.1 mph 28.8 mph N/A   Partly Cloudy
4:55 PM 41.0 °F 31.1 °F 30.2 °F 65% 30.00 in 10.0 mi WNW 23.0 mph 34.5 mph N/A   Mostly Cloudy
5:15 PM 39.2 °F 29.3 °F 26.6 °F 61% 30.01 in 10.0 mi NW 20.7 mph 31.1 mph N/A   Mostly Cloudy
5:35 PM 37.4 °F 27.5 °F 26.6 °F 65% 30.02 in 10.0 mi NW 18.4 mph 32.2 mph N/A   Scattered Clouds
5:55 PM 37.4 °F 27.5 °F 24.8 °F 60% 30.04 in 10.0 mi NW 18.4 mph 31.1 mph N/A   Mostly Cloudy
6:15 PM 35.6 °F 25.2 °F 21.2 °F 56% 30.05 in 10.0 mi NW 18.4 mph 32.2 mph N/A   Scattered Clouds
6:35 PM 33.8 °F 24.8 °F 19.4 °F 56% 30.07 in 10.0 mi WNW 12.7 mph 28.8 mph N/A   Clear
6:55 PM 33.8 °F 23.5 °F 17.6 °F 52% 30.08 in 10.0 mi NW 16.1 mph 25.3 mph N/A   Clear
7:15 PM 28.4 °F 16.6 °F 19.4 °F 69% 30.11 in 10.0 mi NNW 16.1 mph 23.0 mph N/A   Mostly Cloudy
7:35 PM 26.6 °F 16.2 °F 19.4 °F 74% 30.12 in 10.0 mi NNW 11.5 mph 23.0 mph N/A   Mostly Cloudy
7:55 PM 28.4 °F 16.2 °F 17.6 °F 64% 30.14 in 10.0 mi NNW 17.3 mph 32.2 mph N/A   Overcast
8:15 PM 24.8 °F 12.4 °F 12.2 °F 59% 30.16 in 10.0 mi NW 15.0 mph 27.6 mph N/A   Mostly Cloudy
8:35 PM 21.2 °F 6.8 °F 12.2 °F 68% 30.18 in 10.0 mi NNW 17.3 mph 28.8 mph N/A   Scattered Clouds
8:55 PM 19.4 °F 5.0 °F 6.8 °F 58% 30.20 in 10.0 mi NNW 16.1 mph 28.8 mph N/A   Partly Cloudy
9:15 PM 17.6 °F 2.2 °F 3.2 °F 53% 30.21 in 10.0 mi NNW 17.3 mph 24.2 mph N/A   Clear
9:35 PM 15.8 °F 0.3 °F 3.2 °F 58% 30.22 in 10.0 mi NW 16.1 mph 27.6 mph N/A   Clear
9:55 PM 15.8 °F -0.6 °F 1.4 °F 53% 30.24 in 10.0 mi NW 18.4 mph 26.5 mph N/A   Clear
10:15 PM 15.8 °F 1.4 °F 1.4 °F 53% 30.25 in 10.0 mi NNW 13.8 mph 20.7 mph N/A   Clear
10:35 PM 14.0 °F -1.4 °F 1.4 °F 57% 30.25 in 10.0 mi NNW 15.0 mph 20.7 mph N/A   Clear
10:55 PM 12.2 °F -1.8 °F 1.4 °F 62% 30.26 in 10.0 mi NNW 11.5 mph 20.7 mph N/A   Clear
11:15 PM 12.2 °F -1.8 °F 1.4 °F 62% 30.26 in 10.0 mi NW 11.5 mph 19.6 mph N/A   Clear
11:35 PM 12.2 °F -4.3 °F 1.4 °F 62% 30.27 in 10.0 mi NW 16.1 mph 20.7 mph N/A   Clear
11:55 PM 10.4 °F -3.3 °F -0.4 °F 62% 30.27 in 10.0 mi NNW 10.4 mph 19.6 mph N/A   Clear